Terminal Aerodrome Forecast
Issued by NWS Melbourne, FL

Home | Current Version | Previous Version | Text Only | Print | Product List | Glossary On
Versions: 1 2 3 4 5 6 7 8 9 10 11 12 13 14 15 16 17 18 19 20 21 22 23 24 25 26 27 28 29 30
000
FTUS42 KMLB 300311 AAA
TAFMCO
TAF AMD
KMCO 300311Z 3003/3024 22004KT P6SM SCT150 BKN250
     FM301400 26008KT P6SM VCSH SCT025 SCT150 BKN250=

USA.gov is the U.S. government's official web portal to all federal, state and local government web resources and services.